Location: Newark
(21.1200°N, 73.4000°E)
Time: 07:48:22
(UTC+00:00)

Explorer 11/Cluster Stage 4 - Pass Details

Date: 20 January 2020
Orbit: 467 x 1259 km, 28.8° (Epoch: 17 February)

Event Time Altitude Azimuth Distance (km) Brightness Sun altitude
Rises 09:17:33 0° 236° (WSW) 4,190 11.1 39.3°
Reaches altitude 10° 09:20:36 10° 233° (SW) 3,197 10.9 38.9°
Maximum altitude 09:28:34 62° 155° (SSE) 1,271 8.5 37.7°
Drops below altitude 10° 09:35:28 10° 76° (ENE) 2,785 9.1 36.6°
Sets 09:37:58 0° 73° (ENE) 3,624 9.6 36.2°
